This demonstration page uses our WeatherBlox Daily Observations layout. Learn more.

41.55636, -103.73856

Hourly Observations for August 15, 2016

Temp ( °F °C ) Dew Point ( °F °C ) Humidity (%) Winds ( mph kmh ) Pressure ( in mb ) Visibility ( mi km ) Precip ( " mm )
12:53 am 00:53 Clear 66 18.9 50 10 56 56 ESE 7 11 29.85 1011 10 16.0934 0 0
1:53 am 01:53 Clear 61 16.1 52 11.1 72 72 NNE 3 6 29.85 1011 10 16.0934 0 0
2:53 am 02:53 Clear 61 16.1 50 10 67 67 E 6 9 29.85 1011 10 16.0934 0 0
3:53 am 03:53 Clear 61 16.1 50 10 67 67 NE 12 19 29.85 1011 10 16.0934 0 0
4:53 am 04:53 Clear 62 16.7 51 10.6 67 67 ENE 10 17 29.87 1012 10 16.0934 0 0
5:53 am 05:53 Clear 57 13.9 50 10 78 78 VRB 5 7 29.91 1013 10 16.0934 0 0
6:53 am 06:53 Sunny 56 13.3 50 10 81 81 NW 7 11 29.94 1014 10 16.0934 0 0
7:53 am 07:53 Sunny 61 16.1 53 11.7 75 75 NW 6 9 29.96 1015 10 16.0934 0 0
8:53 am 08:53 Sunny 67 19.4 54 12.2 63 63 undefined N/A 29.97 1015 10 16.0934 0 0
9:53 am 09:53 Sunny 72 22.2 56 13.3 57 57 WNW 6 9 29.97 1015 10 16.0934 0 0
10:53 am 10:53 Sunny 76 24.4 57 13.9 52 52 WNW 9 15 29.98 1015 10 16.0934 0 0
11:53 am 11:53 Sunny 79 26.1 57 13.9 47 47 WNW 6 9 29.94 1014 10 16.0934 0 0
12:53 pm 12:53 Sunny 85 29.4 56 13.3 37 37 VRB 3 6 29.93 1014 10 16.0934 0 0
1:53 pm 13:53 Sunny 87 30.6 49 9.4 27 27 ENE 9 15 29.94 1014 10 16.0934 0 0
2:53 pm 14:53 Sunny 87 30.6 49 9.4 27 27 E 10 17 29.93 1014 10 16.0934 0 0
3:53 pm 15:53 Sunny 85 29.4 55 12.8 36 36 ENE 8 13 29.93 1013 10 16.0934 0 0
4:53 pm 16:53 Sunny 83 28.3 54 12.2 37 37 E 3 6 29.94 1014 10 16.0934 0 0
5:53 pm 17:53 Sunny 82 27.8 59 15 46 46 ENE 7 11 29.96 1014 10 16.0934 0 0
6:53 pm 18:53 Sunny 78 25.6 58 14.4 50 50 Calm 29.98 1015 10 16.0934 0 0
7:53 pm 19:53 Sunny 82 27.8 39 3.9 22 22 NNW 9 15 29.97 1015 10 16.0934 0 0
8:39 pm 20:39 Cloudy with Nearby Thunderstorms 74 23.3 48 8.9 40 40 NNW 18 30 29.91 1013 10 16.0934 0 0.0254
8:46 pm 20:46 Mostly Cloudy with Light Thunderstorms 72 22 52 11 50 50 NNE 10 17 29.91 1013 10 16.0934 0 0
8:53 pm 20:53 Mostly Cloudy with Light Thunderstorms 71 21.7 52 11.1 51 51 NNE 18 30 30.03 1017 10 16.0934 0 0.0254
9:01 pm 21:01 Mostly Cloudy with Nearby Thunderstorms 68 20 52 11.1 57 57 NNE 15 24 29.94 1014 10 16.0934 0 0.0254
9:19 pm 21:19 Mostly Cloudy with Light Rain 70 21.1 51 10.6 51 51 NNE 13 20 29.97 1015 10 16.0934 0 0.0254
9:53 pm 21:53 Cloudy with Light Rain 64 17.8 52 11.1 65 65 NNE 28 44 30.09 1019 10 16.0934 0 0.0254
10:53 pm 22:53 Clear with Light Rain 65 18.3 51 10.6 61 61 ENE 20 31 30.06 1018 10 16.0934 0 0.0254
11:53 pm 23:53 Clear 62 16.7 51 10.6 67 67 SW 7 11 30.05 1018 10 16.0934 0 0.0254

Powered by AerisWeather